Location: Maccacari
(45.1333°N, 11.1333°E)
Time: 22:27:07
(UTC+00:00)

Cosmos 1844 Rocket - Pass Details

Date: 18 September 2020
Orbit: 823 x 846 km, 71.0° (Epoch: 24 October)

Event Time Altitude Azimuth Distance (km) Brightness Sun altitude
Rises 17:56:21 0° 155° (SSE) 3,344 5.5 -7.2°
Reaches altitude 10° 17:59:41 10° 134° (SE) 2,419 4.6 -7.8°
Maximum altitude 18:02:56 16° 98° (E) 2,030 4.0 -8.3°
Drops below altitude 10° 18:06:12 10° 62° (ENE) 2,434 4.6 -8.9°
Sets 18:09:33 0° 42° (NE) 3,377 5.5 -9.5°
